Year,Month,Day,Hour,Minute,Value (Times are PST for temperature in C)
2023,04,25,00,00,6.50
2023,04,25,00,01,6.50
2023,04,25,00,02,6.40
2023,04,25,00,03,6.40
2023,04,25,00,04,6.40
2023,04,25,00,05,6.40
2023,04,25,00,06,6.40
2023,04,25,00,07,6.50
2023,04,25,00,08,6.50
2023,04,25,00,09,6.50
2023,04,25,00,10,6.50
2023,04,25,00,11,6.50
2023,04,25,00,12,6.50
2023,04,25,00,13,6.50
2023,04,25,00,14,6.50
2023,04,25,00,15,6.50
2023,04,25,00,16,6.50
2023,04,25,00,17,6.50
2023,04,25,00,18,6.50
2023,04,25,00,19,6.50
2023,04,25,00,20,6.50
2023,04,25,00,21,6.50
2023,04,25,00,22,6.50
2023,04,25,00,23,6.50
2023,04,25,00,24,6.50
2023,04,25,00,25,6.50
2023,04,25,00,26,6.50
2023,04,25,00,27,6.50
2023,04,25,00,28,6.50
2023,04,25,00,29,6.50
2023,04,25,00,30,6.50
2023,04,25,00,31,6.50
2023,04,25,00,32,6.50
2023,04,25,00,33,6.50
2023,04,25,00,34,6.50
2023,04,25,00,35,6.50
2023,04,25,00,36,6.50
2023,04,25,00,37,6.50
2023,04,25,00,38,6.50
2023,04,25,00,39,6.50
2023,04,25,00,40,6.50
2023,04,25,00,41,6.60
2023,04,25,00,42,6.60
2023,04,25,00,43,6.60
2023,04,25,00,44,6.60
2023,04,25,00,45,6.60
2023,04,25,00,46,6.70
2023,04,25,00,47,6.60
2023,04,25,00,48,6.60
2023,04,25,00,49,6.60
2023,04,25,00,50,6.60
2023,04,25,00,51,6.60
2023,04,25,00,52,6.60
2023,04,25,00,53,6.60
2023,04,25,00,54,6.60
2023,04,25,00,55,6.60
2023,04,25,00,56,6.60
2023,04,25,00,57,6.60
2023,04,25,00,58,6.60
2023,04,25,00,59,6.60
2023,04,25,01,00,6.60
2023,04,25,01,01,6.60
2023,04,25,01,02,6.60
2023,04,25,01,03,6.60
2023,04,25,01,04,6.60
2023,04,25,01,05,6.60
2023,04,25,01,06,6.60
2023,04,25,01,07,6.60
2023,04,25,01,08,6.50
2023,04,25,01,09,6.50
2023,04,25,01,10,6.50
2023,04,25,01,11,6.50
2023,04,25,01,12,6.50
2023,04,25,01,13,6.40
2023,04,25,01,14,6.40
2023,04,25,01,15,6.40
2023,04,25,01,16,6.40
2023,04,25,01,17,6.40
2023,04,25,01,18,6.30
2023,04,25,01,19,6.30
2023,04,25,01,20,6.30
2023,04,25,01,21,6.30
2023,04,25,01,22,6.30
2023,04,25,01,23,6.30
2023,04,25,01,24,6.20
2023,04,25,01,25,6.20
2023,04,25,01,26,6.20
2023,04,25,01,27,6.20
2023,04,25,01,28,6.20
2023,04,25,01,29,6.20
2023,04,25,01,30,6.20
2023,04,25,01,31,6.20
2023,04,25,01,32,6.10
2023,04,25,01,33,6.10
2023,04,25,01,34,6.10
2023,04,25,01,35,6.10
2023,04,25,01,36,6.10
2023,04,25,01,37,6.10
2023,04,25,01,38,6.20
2023,04,25,01,39,6.20
2023,04,25,01,40,6.20
2023,04,25,01,41,6.10
2023,04,25,01,42,6.10
2023,04,25,01,43,6.00
2023,04,25,01,44,6.00
2023,04,25,01,45,6.00
2023,04,25,01,46,6.00
2023,04,25,01,47,6.00
2023,04,25,01,48,6.00
2023,04,25,01,49,6.00
2023,04,25,01,50,6.00
2023,04,25,01,51,6.00
2023,04,25,01,52,6.00
2023,04,25,01,53,6.00
2023,04,25,01,54,6.00
2023,04,25,01,55,6.00
2023,04,25,01,56,6.00
2023,04,25,01,57,5.90
2023,04,25,01,58,5.80
2023,04,25,01,59,5.80
2023,04,25,02,00,5.80
2023,04,25,02,01,5.70
2023,04,25,02,02,5.80
2023,04,25,02,03,5.80
2023,04,25,02,04,5.80
2023,04,25,02,05,5.80
2023,04,25,02,06,5.80
2023,04,25,02,07,5.80
2023,04,25,02,08,5.80
2023,04,25,02,09,5.80
2023,04,25,02,10,5.70
2023,04,25,02,11,5.80
2023,04,25,02,12,5.70
2023,04,25,02,13,5.70
2023,04,25,02,14,5.70
2023,04,25,02,15,5.70
2023,04,25,02,16,5.70
2023,04,25,02,17,5.70
2023,04,25,02,18,5.70
2023,04,25,02,19,5.70
2023,04,25,02,20,5.70
2023,04,25,02,21,5.70
2023,04,25,02,22,5.70
2023,04,25,02,23,5.60
2023,04,25,02,24,5.60
2023,04,25,02,25,5.50
2023,04,25,02,26,5.50
2023,04,25,02,27,5.50
2023,04,25,02,28,5.50
2023,04,25,02,29,5.50
2023,04,25,02,30,5.50
2023,04,25,02,31,5.50
2023,04,25,02,32,5.50
2023,04,25,02,33,5.50
2023,04,25,02,34,5.60
2023,04,25,02,35,5.60
2023,04,25,02,36,5.60
2023,04,25,02,37,5.60
2023,04,25,02,38,5.60
2023,04,25,02,39,5.60
2023,04,25,02,40,5.50
2023,04,25,02,41,5.40
2023,04,25,02,42,5.40
2023,04,25,02,43,5.30
2023,04,25,02,44,5.30
2023,04,25,02,45,5.30
2023,04,25,02,46,5.30
2023,04,25,02,47,5.40
2023,04,25,02,48,5.40
2023,04,25,02,49,5.40
2023,04,25,02,50,5.40
2023,04,25,02,51,5.40
2023,04,25,02,52,5.40
2023,04,25,02,53,5.40
2023,04,25,02,54,5.40
2023,04,25,02,55,5.30
2023,04,25,02,56,5.30
2023,04,25,02,57,5.30
2023,04,25,02,58,5.30
2023,04,25,02,59,5.30
2023,04,25,03,00,5.40
2023,04,25,03,01,5.40
2023,04,25,03,02,5.40
2023,04,25,03,03,5.40
2023,04,25,03,04,5.30
2023,04,25,03,05,5.30
2023,04,25,03,06,5.30
2023,04,25,03,07,5.30
2023,04,25,03,08,5.30
2023,04,25,03,09,5.30
2023,04,25,03,10,5.40
2023,04,25,03,11,5.40
2023,04,25,03,12,5.40
2023,04,25,03,13,5.50
2023,04,25,03,14,5.50
2023,04,25,03,15,5.40
2023,04,25,03,16,5.40
2023,04,25,03,17,5.40
2023,04,25,03,18,5.30
2023,04,25,03,19,5.30
2023,04,25,03,20,5.30
2023,04,25,03,21,5.20
2023,04,25,03,22,5.20
2023,04,25,03,23,5.20
2023,04,25,03,24,5.20
2023,04,25,03,25,5.30
2023,04,25,03,26,5.20
2023,04,25,03,27,5.20
2023,04,25,03,28,5.20
2023,04,25,03,29,5.30
2023,04,25,03,30,5.30
2023,04,25,03,31,5.30
2023,04,25,03,32,5.30
2023,04,25,03,33,5.30
2023,04,25,03,34,5.30
2023,04,25,03,35,5.30
2023,04,25,03,36,5.30
2023,04,25,03,37,5.30
2023,04,25,03,38,5.30
2023,04,25,03,39,5.30
2023,04,25,03,40,5.30
2023,04,25,03,41,5.30
2023,04,25,03,42,5.30
2023,04,25,03,43,5.30
2023,04,25,03,44,5.40
2023,04,25,03,45,5.30
2023,04,25,03,46,5.30
2023,04,25,03,47,5.30
2023,04,25,03,48,5.30
2023,04,25,03,49,5.30
2023,04,25,03,50,5.30
2023,04,25,03,51,5.30
2023,04,25,03,52,5.30
2023,04,25,03,53,5.30
2023,04,25,03,54,5.30
2023,04,25,03,55,5.30
2023,04,25,03,56,5.30
2023,04,25,03,57,5.30
2023,04,25,03,58,5.30
2023,04,25,03,59,5.20
2023,04,25,04,00,5.20
2023,04,25,04,01,5.20
2023,04,25,04,02,5.20
2023,04,25,04,03,5.10
2023,04,25,04,04,5.10
2023,04,25,04,05,5.10
2023,04,25,04,06,5.00
2023,04,25,04,07,5.00
2023,04,25,04,08,4.90
2023,04,25,04,09,4.90
2023,04,25,04,10,4.90
2023,04,25,04,11,5.00
2023,04,25,04,12,5.00
2023,04,25,04,13,5.10
2023,04,25,04,14,5.10
2023,04,25,04,15,5.10
2023,04,25,04,16,5.10
2023,04,25,04,17,5.10
2023,04,25,04,18,5.10
2023,04,25,04,19,5.00
2023,04,25,04,20,5.00
2023,04,25,04,21,5.00
2023,04,25,04,22,5.00
2023,04,25,04,23,5.00
2023,04,25,04,24,4.90
2023,04,25,04,25,4.90
2023,04,25,04,26,5.00
2023,04,25,04,27,5.00
2023,04,25,04,28,5.00
2023,04,25,04,29,5.00
2023,04,25,04,30,5.00
2023,04,25,04,31,5.00
2023,04,25,04,32,5.00
2023,04,25,04,33,4.90
2023,04,25,04,34,4.90
2023,04,25,04,35,4.90
2023,04,25,04,36,4.90
2023,04,25,04,37,4.90
2023,04,25,04,38,4.90
2023,04,25,04,39,4.90
2023,04,25,04,40,4.90
2023,04,25,04,41,4.90
2023,04,25,04,42,4.90
2023,04,25,04,43,4.90
2023,04,25,04,44,4.90
2023,04,25,04,45,4.80
2023,04,25,04,46,4.80
2023,04,25,04,47,4.80
2023,04,25,04,48,4.80
2023,04,25,04,49,4.80
2023,04,25,04,50,4.80
2023,04,25,04,51,4.70
2023,04,25,04,52,4.70
2023,04,25,04,53,4.70
2023,04,25,04,54,4.70
2023,04,25,04,55,4.70
2023,04,25,04,56,4.70
2023,04,25,04,57,4.70
2023,04,25,04,58,4.70
2023,04,25,04,59,4.70
2023,04,25,05,00,4.80
2023,04,25,05,01,4.80
2023,04,25,05,02,4.80
2023,04,25,05,03,4.80
2023,04,25,05,04,4.80
2023,04,25,05,05,4.80
2023,04,25,05,06,4.80
2023,04,25,05,07,4.70
2023,04,25,05,08,4.70
2023,04,25,05,09,4.70
2023,04,25,05,10,4.70
2023,04,25,05,11,4.70
2023,04,25,05,12,4.70
2023,04,25,05,13,4.60
2023,04,25,05,14,4.60
2023,04,25,05,15,4.50
2023,04,25,05,16,4.50
2023,04,25,05,17,4.50
2023,04,25,05,18,4.60
2023,04,25,05,19,4.60
2023,04,25,05,20,4.60
2023,04,25,05,21,4.60
2023,04,25,05,22,4.60
2023,04,25,05,23,4.60
2023,04,25,05,24,4.60
2023,04,25,05,25,4.60
2023,04,25,05,26,4.60
2023,04,25,05,27,4.60
2023,04,25,05,28,4.60
2023,04,25,05,29,4.60
2023,04,25,05,30,4.60
2023,04,25,05,31,4.60
2023,04,25,05,32,4.60
2023,04,25,05,33,4.60
2023,04,25,05,34,4.50
2023,04,25,05,35,4.50
2023,04,25,05,36,4.50
2023,04,25,05,37,4.50
2023,04,25,05,38,4.60
2023,04,25,05,39,4.50
2023,04,25,05,40,4.50
2023,04,25,05,41,4.50
2023,04,25,05,42,4.50
2023,04,25,05,43,4.50
2023,04,25,05,44,4.50
2023,04,25,05,45,4.50
2023,04,25,05,46,4.60
2023,04,25,05,47,4.50
2023,04,25,05,48,4.50
2023,04,25,05,49,4.50
2023,04,25,05,50,4.60
2023,04,25,05,51,4.60
2023,04,25,05,52,4.60
2023,04,25,05,53,4.60
2023,04,25,05,54,4.60
2023,04,25,05,55,4.60
2023,04,25,05,56,4.60
2023,04,25,05,57,4.60
2023,04,25,05,58,4.60
2023,04,25,05,59,4.70
2023,04,25,06,00,4.70
2023,04,25,06,01,4.70
2023,04,25,06,02,4.70
2023,04,25,06,03,4.70
2023,04,25,06,04,4.70
2023,04,25,06,05,4.70
2023,04,25,06,06,4.70
2023,04,25,06,07,4.70
2023,04,25,06,08,4.70
2023,04,25,06,09,4.70
2023,04,25,06,10,4.70
2023,04,25,06,11,4.70
2023,04,25,06,12,4.70
2023,04,25,06,13,4.70
2023,04,25,06,14,4.70
2023,04,25,06,15,4.70
2023,04,25,06,16,4.70
2023,04,25,06,17,4.70
2023,04,25,06,18,4.70
2023,04,25,06,19,4.70
2023,04,25,06,20,4.70
2023,04,25,06,21,4.70
2023,04,25,06,22,4.70
2023,04,25,06,23,4.70
2023,04,25,06,24,4.70
2023,04,25,06,25,4.70
2023,04,25,06,26,4.70
2023,04,25,06,27,4.70
2023,04,25,06,28,4.70
2023,04,25,06,29,4.70
2023,04,25,06,30,4.70
2023,04,25,06,31,4.70
2023,04,25,06,32,4.70
2023,04,25,06,33,4.70
2023,04,25,06,34,4.70
2023,04,25,06,35,4.70
2023,04,25,06,36,4.70
2023,04,25,06,37,4.70
2023,04,25,06,38,4.70
2023,04,25,06,39,4.70
2023,04,25,06,40,4.70
2023,04,25,06,41,4.70
2023,04,25,06,42,4.70
2023,04,25,06,43,4.70
2023,04,25,06,44,4.80
2023,04,25,06,45,4.80
2023,04,25,06,46,4.80
2023,04,25,06,47,4.80
2023,04,25,06,48,4.80
2023,04,25,06,49,4.90
2023,04,25,06,50,4.90
2023,04,25,06,51,4.90
2023,04,25,06,52,4.90
2023,04,25,06,53,4.90
2023,04,25,06,54,4.90
2023,04,25,06,55,5.00
2023,04,25,06,56,5.00
2023,04,25,06,57,5.00
2023,04,25,06,58,5.10
2023,04,25,06,59,5.10
2023,04,25,07,00,5.10
2023,04,25,07,01,5.10
2023,04,25,07,02,5.10
2023,04,25,07,03,5.20
2023,04,25,07,04,5.20
2023,04,25,07,05,5.20
2023,04,25,07,06,5.20
2023,04,25,07,07,5.30
2023,04,25,07,08,5.30
2023,04,25,07,09,5.30
2023,04,25,07,10,5.30
2023,04,25,07,11,5.30
2023,04,25,07,12,5.30
2023,04,25,07,13,5.40
2023,04,25,07,14,5.40
2023,04,25,07,15,5.40
2023,04,25,07,16,5.40
2023,04,25,07,17,5.50
2023,04,25,07,18,5.50
2023,04,25,07,19,5.60
2023,04,25,07,20,5.60
2023,04,25,07,21,5.60
2023,04,25,07,22,5.60
2023,04,25,07,23,5.70
2023,04,25,07,24,5.70
2023,04,25,07,25,5.70
2023,04,25,07,26,5.70
2023,04,25,07,27,5.70
2023,04,25,07,28,5.80
2023,04,25,07,29,5.80
2023,04,25,07,30,5.80
2023,04,25,07,31,5.80
2023,04,25,07,32,5.80
2023,04,25,07,33,5.90
2023,04,25,07,34,5.90
2023,04,25,07,35,5.90
2023,04,25,07,36,5.90
2023,04,25,07,37,6.00
2023,04,25,07,38,6.00
2023,04,25,07,39,6.00
2023,04,25,07,40,6.10
2023,04,25,07,41,6.10
2023,04,25,07,42,6.10
2023,04,25,07,43,6.10
2023,04,25,07,44,6.20
2023,04,25,07,45,6.20
2023,04,25,07,46,6.20
2023,04,25,07,47,6.20
2023,04,25,07,48,6.30
2023,04,25,07,49,6.30
2023,04,25,07,50,6.30
2023,04,25,07,51,6.30
2023,04,25,07,52,6.40
2023,04,25,07,53,6.40
2023,04,25,07,54,6.50
2023,04,25,07,55,6.60
2023,04,25,07,56,6.70
2023,04,25,07,57,6.70
2023,04,25,07,58,6.70
2023,04,25,07,59,6.80
2023,04,25,08,00,6.80
2023,04,25,08,01,6.90
2023,04,25,08,02,7.00
2023,04,25,08,03,7.00
2023,04,25,08,04,7.10
2023,04,25,08,05,7.10
2023,04,25,08,06,7.20
2023,04,25,08,07,7.20
2023,04,25,08,08,7.30
2023,04,25,08,09,7.30
2023,04,25,08,10,7.30
2023,04,25,08,11,7.30
2023,04,25,08,12,7.30
2023,04,25,08,13,7.40
2023,04,25,08,14,7.40
2023,04,25,08,15,7.40
2023,04,25,08,16,7.40
2023,04,25,08,17,7.50
2023,04,25,08,18,7.50
2023,04,25,08,19,7.50
2023,04,25,08,20,7.60
2023,04,25,08,21,7.60
2023,04,25,08,22,7.60
2023,04,25,08,23,7.60
2023,04,25,08,24,7.70
2023,04,25,08,25,7.70
2023,04,25,08,26,7.80
2023,04,25,08,27,7.80
2023,04,25,08,28,7.90
2023,04,25,08,29,7.90
2023,04,25,08,30,8.00
2023,04,25,08,31,8.00
2023,04,25,08,32,8.10
2023,04,25,08,33,8.10
2023,04,25,08,34,8.20
2023,04,25,08,35,8.20
2023,04,25,08,36,8.30
2023,04,25,08,37,8.30
2023,04,25,08,38,8.30
2023,04,25,08,39,8.30
2023,04,25,08,40,8.40
2023,04,25,08,41,8.40
2023,04,25,08,42,8.40
2023,04,25,08,43,8.40
2023,04,25,08,44,8.40
2023,04,25,08,45,8.40
2023,04,25,08,46,8.50
2023,04,25,08,47,8.50
2023,04,25,08,48,8.60
2023,04,25,08,49,8.60
2023,04,25,08,50,8.60
2023,04,25,08,51,8.60
2023,04,25,08,52,8.60
2023,04,25,08,53,8.60
2023,04,25,08,54,8.60
2023,04,25,08,55,8.60
2023,04,25,08,56,8.70
2023,04,25,08,57,8.70
2023,04,25,08,58,8.70
2023,04,25,08,59,8.70
2023,04,25,09,00,8.70
2023,04,25,09,01,8.80
2023,04,25,09,02,8.80
2023,04,25,09,03,8.80
2023,04,25,09,04,8.80
2023,04,25,09,05,8.90
2023,04,25,09,06,8.90
2023,04,25,09,07,8.90
2023,04,25,09,08,9.00
2023,04,25,09,09,9.10
2023,04,25,09,10,9.10
2023,04,25,09,11,9.20
2023,04,25,09,12,9.20
2023,04,25,09,13,9.30
2023,04,25,09,14,9.40
2023,04,25,09,15,9.40
2023,04,25,09,16,9.50
2023,04,25,09,17,9.60
2023,04,25,09,18,9.70
2023,04,25,09,19,9.70
2023,04,25,09,20,9.80
2023,04,25,09,21,9.80
2023,04,25,09,22,9.80
2023,04,25,09,23,9.90
2023,04,25,09,24,9.90
2023,04,25,09,25,9.90
2023,04,25,09,26,9.90
2023,04,25,09,27,9.90
2023,04,25,09,28,9.90
2023,04,25,09,29,9.90
2023,04,25,09,30,9.90
2023,04,25,09,31,10.00
2023,04,25,09,32,10.10
2023,04,25,09,33,10.10
2023,04,25,09,34,10.20
2023,04,25,09,35,10.20
2023,04,25,09,36,10.20
2023,04,25,09,37,10.30
2023,04,25,09,38,10.30
2023,04,25,09,39,10.30
2023,04,25,09,40,10.40
2023,04,25,09,41,10.40
2023,04,25,09,42,10.40
2023,04,25,09,43,10.40
2023,04,25,09,44,10.40
2023,04,25,09,45,10.40
2023,04,25,09,46,10.40
2023,04,25,09,47,10.40
2023,04,25,09,48,10.40
2023,04,25,09,49,10.40
2023,04,25,09,50,10.40
2023,04,25,09,51,10.50
2023,04,25,09,52,10.50
2023,04,25,09,53,10.50
2023,04,25,09,54,10.50
2023,04,25,09,55,10.50
2023,04,25,09,56,10.50
2023,04,25,09,57,10.40
2023,04,25,09,58,10.50
2023,04,25,09,59,10.50
2023,04,25,10,00,10.50
2023,04,25,10,01,10.50
2023,04,25,10,02,10.50
2023,04,25,10,03,10.50
2023,04,25,10,04,10.60
2023,04,25,10,05,10.60
2023,04,25,10,06,10.60
2023,04,25,10,07,10.70
2023,04,25,10,08,10.70
2023,04,25,10,09,10.70
2023,04,25,10,10,10.70
2023,04,25,10,11,10.70
2023,04,25,10,12,10.70
2023,04,25,10,13,10.80
2023,04,25,10,14,10.80
2023,04,25,10,15,10.90
2023,04,25,10,16,11.00
2023,04,25,10,17,11.10
2023,04,25,10,18,11.10
2023,04,25,10,19,11.20
2023,04,25,10,20,11.30
2023,04,25,10,21,11.30
2023,04,25,10,22,11.30
2023,04,25,10,23,11.30
2023,04,25,10,24,11.40
2023,04,25,10,25,11.40
2023,04,25,10,26,11.50
2023,04,25,10,27,11.60
2023,04,25,10,28,11.70
2023,04,25,10,29,11.70
2023,04,25,10,30,11.70
2023,04,25,10,31,11.70
2023,04,25,10,32,11.60
2023,04,25,10,33,11.60
2023,04,25,10,34,11.60
2023,04,25,10,35,11.50
2023,04,25,10,36,11.40
2023,04,25,10,37,11.40
2023,04,25,10,38,11.30
2023,04,25,10,39,11.30
2023,04,25,10,40,11.20
2023,04,25,10,41,11.20
2023,04,25,10,42,11.20
2023,04,25,10,43,11.20
2023,04,25,10,44,11.20
2023,04,25,10,45,11.30
2023,04,25,10,46,11.40
2023,04,25,10,47,11.50
2023,04,25,10,48,11.60
2023,04,25,10,49,11.60
2023,04,25,10,50,11.60
2023,04,25,10,51,11.60
2023,04,25,10,52,11.60
2023,04,25,10,53,11.60
2023,04,25,10,54,11.60
2023,04,25,10,55,11.50
2023,04,25,10,56,11.50
2023,04,25,10,57,11.40
2023,04,25,10,58,11.30
2023,04,25,10,59,11.30
2023,04,25,11,00,11.30
2023,04,25,11,01,11.30
2023,04,25,11,02,11.30
2023,04,25,11,03,11.30
2023,04,25,11,04,11.30
2023,04,25,11,05,11.30
2023,04,25,11,06,11.30
2023,04,25,11,07,11.20
2023,04,25,11,08,11.10
2023,04,25,11,09,11.00
2023,04,25,11,10,10.90
2023,04,25,11,11,10.80
2023,04,25,11,12,10.70
2023,04,25,11,13,10.70
2023,04,25,11,14,10.70
2023,04,25,11,15,10.70
2023,04,25,11,16,10.70
2023,04,25,11,17,10.80
2023,04,25,11,18,10.80
2023,04,25,11,19,10.90
2023,04,25,11,20,10.90
2023,04,25,11,21,11.00
2023,04,25,11,22,11.10
2023,04,25,11,23,11.10
2023,04,25,11,24,11.10
2023,04,25,11,25,11.10
2023,04,25,11,26,11.10
2023,04,25,11,27,11.20
2023,04,25,11,28,11.40
2023,04,25,11,29,11.40
2023,04,25,11,30,11.50
2023,04,25,11,31,11.60
2023,04,25,11,32,11.60
2023,04,25,11,33,11.60
2023,04,25,11,34,11.70
2023,04,25,11,35,11.60
2023,04,25,11,36,11.60
2023,04,25,11,37,11.60
2023,04,25,11,38,11.60
2023,04,25,11,39,11.60
2023,04,25,11,40,11.70
2023,04,25,11,41,11.70
2023,04,25,11,42,11.70
2023,04,25,11,43,11.70
2023,04,25,11,44,11.70
2023,04,25,11,45,11.70
2023,04,25,11,46,11.70
2023,04,25,11,47,11.70
2023,04,25,11,48,11.80
2023,04,25,11,49,11.80
2023,04,25,11,50,11.80
2023,04,25,11,51,11.80
2023,04,25,11,52,11.80
2023,04,25,11,53,11.80
2023,04,25,11,54,11.80
2023,04,25,11,55,11.90
2023,04,25,11,56,11.80
2023,04,25,11,57,11.70
2023,04,25,11,58,11.60
2023,04,25,11,59,11.60
2023,04,25,12,00,11.60
2023,04,25,12,01,11.60
2023,04,25,12,02,11.70
2023,04,25,12,03,11.80
2023,04,25,12,04,11.80
2023,04,25,12,05,11.90
2023,04,25,12,06,12.00
2023,04,25,12,07,12.10
2023,04,25,12,08,12.20
2023,04,25,12,09,12.30
2023,04,25,12,10,12.40
2023,04,25,12,11,12.50
2023,04,25,12,12,12.70
2023,04,25,12,13,12.70
2023,04,25,12,14,12.70
2023,04,25,12,15,12.80
2023,04,25,12,16,12.80
2023,04,25,12,17,12.80
2023,04,25,12,18,12.80
2023,04,25,12,19,12.80
2023,04,25,12,20,12.80
2023,04,25,12,21,12.80
2023,04,25,12,22,12.80
2023,04,25,12,23,12.70
2023,04,25,12,24,12.60
2023,04,25,12,25,12.50
2023,04,25,12,26,12.30
2023,04,25,12,27,12.20
2023,04,25,12,28,12.10
2023,04,25,12,29,12.00
2023,04,25,12,30,11.90
2023,04,25,12,31,11.90
2023,04,25,12,32,12.00
2023,04,25,12,33,12.10
2023,04,25,12,34,12.10
2023,04,25,12,35,12.20
2023,04,25,12,36,12.20
2023,04,25,12,37,12.30
2023,04,25,12,38,12.40
2023,04,25,12,39,12.40
2023,04,25,12,40,12.40
2023,04,25,12,41,12.40
2023,04,25,12,42,12.30
2023,04,25,12,43,12.20
2023,04,25,12,44,12.20
2023,04,25,12,45,12.20
2023,04,25,12,46,12.20
2023,04,25,12,47,12.30
2023,04,25,12,48,12.30
2023,04,25,12,49,12.40
2023,04,25,12,50,12.50
2023,04,25,12,51,12.60
2023,04,25,12,52,12.60
2023,04,25,12,53,12.60
2023,04,25,12,54,12.50
2023,04,25,12,55,12.50
2023,04,25,12,56,12.50
2023,04,25,12,57,12.60
2023,04,25,12,58,12.70
2023,04,25,12,59,12.80
2023,04,25,13,00,12.80
2023,04,25,13,01,12.80
2023,04,25,13,02,12.80
2023,04,25,13,03,12.80
2023,04,25,13,04,12.80
2023,04,25,13,05,12.80
2023,04,25,13,06,12.80
2023,04,25,13,07,12.70
2023,04,25,13,08,12.70
2023,04,25,13,09,12.70
2023,04,25,13,10,12.80
2023,04,25,13,11,12.80
2023,04,25,13,12,12.90
2023,04,25,13,13,13.00
2023,04,25,13,14,13.00
2023,04,25,13,15,13.00
2023,04,25,13,16,13.00
2023,04,25,13,17,13.00
2023,04,25,13,18,13.00
2023,04,25,13,19,12.90
2023,04,25,13,20,12.90
2023,04,25,13,21,12.80
2023,04,25,13,22,12.80
2023,04,25,13,23,12.80
2023,04,25,13,24,12.80
2023,04,25,13,25,12.80
2023,04,25,13,26,12.80
2023,04,25,13,27,12.80
2023,04,25,13,28,12.80
2023,04,25,13,29,12.80
2023,04,25,13,30,12.70
2023,04,25,13,31,12.70
2023,04,25,13,32,12.70
2023,04,25,13,33,12.70
2023,04,25,13,34,12.70
2023,04,25,13,35,12.70
2023,04,25,13,36,12.70
2023,04,25,13,37,12.80
2023,04,25,13,38,12.80
2023,04,25,13,39,12.90
2023,04,25,13,40,12.90
2023,04,25,13,41,13.00
2023,04,25,13,42,13.00
2023,04,25,13,43,13.10
2023,04,25,13,44,13.20
2023,04,25,13,45,13.20
2023,04,25,13,46,13.20
2023,04,25,13,47,13.20
2023,04,25,13,48,13.20
2023,04,25,13,49,13.20
2023,04,25,13,50,13.30
2023,04,25,13,51,13.40
2023,04,25,13,52,13.50
2023,04,25,13,53,13.50
2023,04,25,13,54,13.60
2023,04,25,13,55,13.70
2023,04,25,13,56,13.80
2023,04,25,13,57,13.90
2023,04,25,13,58,14.10
2023,04,25,13,59,14.20
2023,04,25,14,00,14.20
2023,04,25,14,01,14.30
2023,04,25,14,02,14.30
2023,04,25,14,03,14.30
2023,04,25,14,04,14.30
2023,04,25,14,05,14.30
2023,04,25,14,06,14.40
2023,04,25,14,07,14.50
2023,04,25,14,08,14.60
2023,04,25,14,09,14.70
2023,04,25,14,10,14.80
2023,04,25,14,11,14.90
2023,04,25,14,12,15.00
2023,04,25,14,13,15.00
2023,04,25,14,14,15.00
2023,04,25,14,15,15.10
2023,04,25,14,16,15.10
2023,04,25,14,17,15.00
2023,04,25,14,18,14.90
2023,04,25,14,19,14.70
2023,04,25,14,20,14.60
2023,04,25,14,21,14.60
2023,04,25,14,22,14.60
2023,04,25,14,23,14.60
2023,04,25,14,24,14.50
2023,04,25,14,25,14.50
2023,04,25,14,26,14.60
2023,04,25,14,27,14.60
2023,04,25,14,28,14.70
2023,04,25,14,29,14.70
2023,04,25,14,30,14.60
2023,04,25,14,31,14.60
2023,04,25,14,32,14.70
2023,04,25,14,33,14.70
2023,04,25,14,34,14.60
2023,04,25,14,35,14.60
2023,04,25,14,36,14.60
2023,04,25,14,37,14.60
2023,04,25,14,38,14.60
2023,04,25,14,39,14.60
2023,04,25,14,40,14.60
2023,04,25,14,41,14.70
2023,04,25,14,42,14.80
2023,04,25,14,43,14.80
2023,04,25,14,44,14.90
2023,04,25,14,45,14.80
2023,04,25,14,46,14.80
2023,04,25,14,47,14.90
2023,04,25,14,48,14.80
2023,04,25,14,49,14.70
2023,04,25,14,50,14.60
2023,04,25,14,51,14.40
2023,04,25,14,52,14.20
2023,04,25,14,53,14.00
2023,04,25,14,54,13.80
2023,04,25,14,55,13.70
2023,04,25,14,56,13.60
2023,04,25,14,57,13.70
2023,04,25,14,58,13.70
2023,04,25,14,59,13.70
2023,04,25,15,00,13.70
2023,04,25,15,01,13.60
2023,04,25,15,02,13.60
2023,04,25,15,03,13.60
2023,04,25,15,04,13.60
2023,04,25,15,05,13.60
2023,04,25,15,06,13.60
2023,04,25,15,07,13.60
2023,04,25,15,08,13.60
2023,04,25,15,09,13.60
2023,04,25,15,10,13.70
2023,04,25,15,11,13.70
2023,04,25,15,12,13.70
2023,04,25,15,13,13.80
2023,04,25,15,14,13.80
2023,04,25,15,15,13.80
2023,04,25,15,16,13.80
2023,04,25,15,17,13.80
2023,04,25,15,18,13.80
2023,04,25,15,19,13.90
2023,04,25,15,20,13.80
2023,04,25,15,21,13.80
2023,04,25,15,22,13.80
2023,04,25,15,23,13.70
2023,04,25,15,24,13.70
2023,04,25,15,25,13.70
2023,04,25,15,26,13.70
2023,04,25,15,27,13.80
2023,04,25,15,28,13.80
2023,04,25,15,29,13.90
2023,04,25,15,30,14.00
2023,04,25,15,31,14.00
2023,04,25,15,32,14.00
2023,04,25,15,33,14.10
2023,04,25,15,34,14.20
2023,04,25,15,35,14.20
2023,04,25,15,36,14.30
2023,04,25,15,37,14.30
2023,04,25,15,38,14.40
2023,04,25,15,39,14.40
2023,04,25,15,40,14.40
2023,04,25,15,41,14.40
2023,04,25,15,42,14.30
2023,04,25,15,43,14.10
2023,04,25,15,44,14.10
2023,04,25,15,45,14.00
2023,04,25,15,46,13.90
2023,04,25,15,47,13.90
2023,04,25,15,48,13.80
2023,04,25,15,49,13.80
2023,04,25,15,50,13.80
2023,04,25,15,51,13.80
2023,04,25,15,52,13.90
2023,04,25,15,53,13.90
2023,04,25,15,54,14.00
2023,04,25,15,55,14.10
2023,04,25,15,56,14.20
2023,04,25,15,57,14.30
2023,04,25,15,58,14.40
2023,04,25,15,59,14.50
2023,04,25,16,00,14.60
2023,04,25,16,01,14.60
2023,04,25,16,02,14.60
2023,04,25,16,03,14.50
2023,04,25,16,04,14.40
2023,04,25,16,05,14.40
2023,04,25,16,06,14.40
2023,04,25,16,07,14.50
2023,04,25,16,08,14.50
2023,04,25,16,09,14.50
2023,04,25,16,10,14.60
2023,04,25,16,11,14.60
2023,04,25,16,12,14.60
2023,04,25,16,13,14.50
2023,04,25,16,14,14.40
2023,04,25,16,15,14.30
2023,04,25,16,16,14.20
2023,04,25,16,17,14.10
2023,04,25,16,18,14.00
2023,04,25,16,19,13.90
2023,04,25,16,20,13.70
2023,04,25,16,21,13.60
2023,04,25,16,22,13.60
2023,04,25,16,23,13.50
2023,04,25,16,24,13.50
2023,04,25,16,25,13.50
2023,04,25,16,26,13.60
2023,04,25,16,27,13.60
2023,04,25,16,28,13.70
2023,04,25,16,29,13.80
2023,04,25,16,30,13.80
2023,04,25,16,31,13.80
2023,04,25,16,32,13.90
2023,04,25,16,33,13.90
2023,04,25,16,34,14.00
2023,04,25,16,35,14.00
2023,04,25,16,36,14.10
2023,04,25,16,37,14.20
2023,04,25,16,38,14.30
2023,04,25,16,39,14.40
2023,04,25,16,40,14.40
2023,04,25,16,41,14.40
2023,04,25,16,42,14.30
2023,04,25,16,43,14.20
2023,04,25,16,44,14.20
2023,04,25,16,45,14.10
2023,04,25,16,46,14.10
2023,04,25,16,47,14.00
2023,04,25,16,48,13.90
2023,04,25,16,49,13.90
2023,04,25,16,50,13.80
2023,04,25,16,51,13.70
2023,04,25,16,52,13.70
2023,04,25,16,53,13.70
2023,04,25,16,54,13.80
2023,04,25,16,55,13.90
2023,04,25,16,56,14.00
2023,04,25,16,57,14.20
2023,04,25,16,58,14.30
2023,04,25,16,59,14.40
2023,04,25,17,00,14.50
2023,04,25,17,01,14.50
2023,04,25,17,02,14.50
2023,04,25,17,03,14.60
2023,04,25,17,04,14.50
2023,04,25,17,05,14.40
2023,04,25,17,06,14.40
2023,04,25,17,07,14.30
2023,04,25,17,08,14.20
2023,04,25,17,09,14.10
2023,04,25,17,10,14.00
2023,04,25,17,11,13.90
2023,04,25,17,12,13.90
2023,04,25,17,13,14.00
2023,04,25,17,14,14.00
2023,04,25,17,15,14.10
2023,04,25,17,16,14.10
2023,04,25,17,17,14.20
2023,04,25,17,18,14.30
2023,04,25,17,19,14.30
2023,04,25,17,20,14.30
2023,04,25,17,21,14.30
2023,04,25,17,22,14.30
2023,04,25,17,23,14.30
2023,04,25,17,24,14.30
2023,04,25,17,25,14.30
2023,04,25,17,26,14.40
2023,04,25,17,27,14.40
2023,04,25,17,28,14.40
2023,04,25,17,29,14.40
2023,04,25,17,30,14.40
2023,04,25,17,31,14.30
2023,04,25,17,32,14.30
2023,04,25,17,33,14.20
2023,04,25,17,34,14.20
2023,04,25,17,35,14.20
2023,04,25,17,36,14.10
2023,04,25,17,37,14.10
2023,04,25,17,38,14.00
2023,04,25,17,39,14.00
2023,04,25,17,40,13.90
2023,04,25,17,41,13.90
2023,04,25,17,42,13.90
2023,04,25,17,43,13.90
2023,04,25,17,44,13.90